User: anonymous
Location: Tyler Bend Campground
(35.9875°N, 92.7606°W)
Time: 15:06:05
(UTC-05:00)
Language:

CZ-2C R/B - Orbit

View from above orbital plane
View from above orbital plane
View from above satellite
View from above satellite

Ground track
Ground track

The orbit data is extracted from the following two-line orbital elements,

1 36089U 09061B   14241.07260375  .00000209  00000-0  64262-4 0  4084
2 36089 098.1014 271.1501 0081373 315.4447 096.4063 14.49208880253493
Epoch (UTC): 29 August 2014 01:44:32
Eccentricity: 0.0081373
inclination: 98.1014°
perigee height: 670 km
apogee height: 786 km
right ascension of ascending node: 271.1501°
argument of perigee: 315.4447°
revolutions per day: 14.49208880
mean anomaly at epoch: 96.4063°
orbit number at epoch: 25349

The dashed part of the orbit path shows where the satellite is in the earth's shadow,  

DLR